Theta_e
317 315 310 312 321 322 325 328 329 325 334 333 333 339 335 343 351 353 353 356 355 358 358 355 354 355 357 356 357 356 353 353
313 311 315 317 322 326 327 330 332 335 328 332 342 334 335 348 349 351 353 355 356 357 356 355 354 354 354 356 356 356 353 353
312 313 316 322 324 326 325 323 331 332 326 327 333 337 341 344 348 347 352 353 354 357 356 355 352 353 354 354 356 355 354 356
311 313 318 324 327 330 328 328 332 329 330 331 338 338 339 345 344 351 351 352 354 356 356 355 353 353 353 354 353 354 355 355
312 313 315 322 330 327 329 325 329 333 327 334 336 340 340 344 346 351 353 352 353 352 352 354 353 353 354 353 354 353 354 354
313 312 314 326 327 329 331 328 335 338 327 329 337 340 339 340 345 347 350 350 350 353 351 349 350 353 354 354 353 354 354 354
312 314 316 327 329 334 336 332 335 337 336 338 339 337 335 334 340 342 345 348 349 348 347 349 345 350 353 353 353 353 353 354
318 322 321 329 330 331 329 329 329 331 335 336 337 335 333 333 331 335 336 339 342 344 344 345 351 349 348 348 348 349 348 352
319 322 328 329 329 335 330 327 330 329 333 337 337 337 336 337 337 331 331 333 337 345 349 344 341 352 345 349 349 348 352 357
319 324 326 326 329 326 328 328 333 333 332 331 330 330 331 332 334 337 339 340 342 346 351 352 348 348 350 348 350 350 351 357
320 322 323 325 321 321 321 325 327 328 327 326 325 325 326 328 329 329 330 332 331 336 342 348 354 351 351 351 348 350 353 356
319 319 321 318 318 320 320 322 320 319 318 319 320 321 322 322 322 324 325 326 327 328 332 338 347 353 355 353 351 351 350 349
315 317 316 319 314 314 319 319 316 315 315 316 316 317 317 319 319 321 322 323 324 326 328 331 336 341 347 355 352 353 353 355
313 315 315 315 307 315 319 317 314 314 313 313 313 314 315 317 318 319 319 321 321 320 321 326 328 334 341 346 347 347 347 348
306 313 313 312 307 313 317 315 312 313 312 312 311 312 313 315 315 316 317 318 319 320 317 321 327 328 335 337 343 342 339 337
304 309 311 309 308 311 314 313 311 311 311 310 309 309 312 313 314 315 317 319 319 318 319 321 321 322 325 327 329 329 326 325
308 311 308 309 307 308 311 311 310 310 309 309 308 310 311 312 313 314 317 318 318 317 318 318 317 316 319 319 319 321 321 325
309 311 309 308 306 308 310 310 310 309 308 308 308 308 309 310 312 314 315 317 317 317 317 317 318 318 322 321 323 322 322 324
305 308 309 307 303 304 308 309 309 309 308 308 307 306 308 308 310 311 313 314 315 316 317 317 317 317 317 318 318 315 316 315
305 304 299 307 295 302 305 304 305 306 306 306 306 307 307 308 308 309 310 313 315 315 315 315 316 314 316 312 311 314 314 315
Wind_Speed
8 8 10 6 7 3 13 9 14 12 21 11 16 20 17 19 24 22 17 17 14 14 11 12 11 11 10 10 10 9 10 9
12 6 6 5 3 3 17 28 27 20 8 17 15 16 17 22 20 22 19 15 15 15 11 11 10 9 9 8 8 9 9 8
14 6 5 6 6 7 17 26 26 26 21 18 18 20 19 17 19 17 20 16 14 15 10 9 10 8 7 7 7 7 8 6
3 13 7 12 27 27 27 31 23 29 24 20 17 18 16 19 17 22 19 15 13 14 14 9 8 9 7 6 6 5 5 5
13 12 11 11 17 16 19 28 21 20 24 19 18 15 15 16 18 21 18 14 12 12 12 11 10 8 9 8 6 5 5 4
18 13 13 19 14 13 5 9 14 12 14 17 13 16 16 13 20 17 15 14 12 14 13 11 11 12 10 9 7 6 6 6
20 15 12 16 27 17 22 14 15 20 22 18 16 17 15 12 11 15 15 17 17 16 14 15 13 11 10 8 7 7 7 10
16 17 11 19 30 17 24 23 23 23 20 18 16 15 16 15 11 10 8 7 9 10 4 12 12 12 9 9 8 8 9 9
18 17 17 15 22 16 17 21 21 19 20 21 22 20 22 22 19 12 11 6 10 7 7 7 4 9 6 8 7 8 9 6
13 18 21 21 22 22 21 19 21 18 18 20 21 19 19 18 17 18 18 18 20 12 7 6 5 3 1 2 4 4 7 6
14 18 19 20 17 17 17 18 17 17 17 17 16 16 15 15 14 14 15 16 17 15 14 11 9 7 4 4 1 2 1 6
19 19 19 19 16 14 14 14 15 15 15 14 14 13 12 12 12 13 13 14 14 14 13 12 8 9 7 5 5 2 1 4
16 19 16 19 16 14 15 14 13 14 13 13 12 12 12 11 11 11 11 12 13 12 13 12 11 10 7 7 3 4 3 2
18 17 14 15 15 13 12 13 13 13 12 11 11 11 11 11 10 11 10 11 11 12 13 11 10 9 7 8 9 9 10 11
17 19 19 16 17 12 12 12 11 10 10 11 11 10 9 10 11 10 10 10 11 11 14 11 9 8 8 9 7 9 9 11
22 20 22 21 17 14 11 11 11 9 9 9 9 10 9 10 10 10 11 10 10 10 11 10 8 8 8 8 8 9 9 8
11 15 15 13 16 15 12 12 11 11 10 9 9 10 10 9 10 10 10 10 11 11 12 9 8 8 7 7 5 6 5 7
16 11 5 13 13 14 13 13 12 11 10 11 11 9 9 9 10 9 10 10 11 11 11 10 7 7 5 5 3 5 7 8
18 13 9 14 14 14 14 9 9 9 9 8 9 9 9 9 9 10 9 10 11 10 10 10 12 7 7 7 6 7 8 10
13 16 10 17 10 21 19 15 13 12 12 12 10 10 9 9 9 10 10 11 11 11 11 11 12 10 10 8 7 7 8 8
Wind_Direction
231 215 250 107 122 253 112 116 79 34 37 40 79 76 108 109 109 116 121 106 121 117 118 115 116 120 116 114 112 106 109 108
251 265 85 66 48 112 67 67 92 84 37 57 69 98 126 111 121 118 108 117 126 124 124 118 117 116 117 120 120 120 116 117
279 88 66 75 122 242 116 127 143 151 113 100 104 116 115 123 112 116 113 121 127 119 114 116 117 115 122 125 121 120 126 125
315 268 96 73 54 37 44 32 37 105 109 106 116 118 134 128 120 120 119 121 127 124 119 126 129 136 141 137 136 139 135 136
280 245 98 66 79 49 46 65 8 340 101 106 115 116 104 104 109 98 109 122 135 130 134 145 150 156 152 157 161 167 160 158
275 96 84 74 82 107 56 80 111 262 125 111 112 116 123 128 119 121 135 139 141 146 163 164 162 169 168 169 175 179 196 194
265 107 103 105 117 149 143 128 116 90 102 116 131 123 113 113 122 138 148 153 159 165 166 167 154 167 169 177 185 202 222 225
75 77 74 52 102 103 103 107 101 99 113 131 133 127 124 124 117 114 92 46 64 60 80 124 139 149 181 179 193 198 208 193
92 108 95 83 69 104 95 73 76 82 68 60 53 48 54 47 41 74 101 100 86 51 11 338 145 172 184 172 188 196 207 190
69 89 91 84 76 76 65 64 68 67 67 63 57 49 47 48 37 30 39 31 15 49 26 11 2 316 326 330 175 185 189 182
93 87 112 102 87 90 84 76 72 71 70 70 67 58 46 45 44 33 29 24 20 28 14 2 346 340 339 349 329 266 355 180
121 120 110 116 108 106 97 93 90 86 81 73 71 72 63 46 37 38 25 20 15 21 10 1 355 358 337 331 321 307 293 310
146 128 119 113 111 113 128 123 114 102 91 84 75 70 66 56 52 34 37 21 14 11 15 359 8 340 341 316 316 324 327 251
147 151 150 221 134 137 143 140 128 120 112 97 77 70 66 69 54 48 38 32 26 21 12 4 8 336 327 25 31 33 26 27
208 169 179 221 133 153 157 148 138 133 123 114 104 79 62 61 65 50 50 35 36 31 15 4 11 350 2 16 21 29 31 22
214 186 188 201 124 156 160 156 152 141 125 112 97 89 77 69 63 62 53 41 38 35 22 7 17 11 15 15 27 17 22 20
103 155 197 149 141 159 168 168 160 158 142 120 107 97 91 79 67 64 57 50 38 36 28 16 23 18 12 2 18 16 14 25
105 134 236 132 156 162 181 185 168 155 149 140 128 106 94 83 81 69 62 52 46 35 39 24 2 22 350 354 27 9 4 42
165 163 243 154 177 179 191 161 153 150 134 127 121 117 102 88 76 78 69 55 49 40 36 36 4 21 11 17 20 15 5 22
233 161 207 181 232 185 185 183 181 167 166 146 136 121 109 94 80 77 72 67 54 42 32 33 26 25 29 13 13 5 13 356